Mount Carmel, IL

11:24 PM CDT on July 22, 2017 (GMT -0500)
Mount Carmel Municipal

Weather History for KAJG - January, 2013

Change the Weather History Date:

Monday, January 21, 2013

  Actual Average (KLWV) Record (KLWV)
Temperature  
Mean Temperature 22 °F -  
Max Temperature 28 °F 35 °F 68 °F (2017)
Min Temperature 17 °F 20 °F -7 °F (2011)
Degree Days  
Heating Degree Days 42    
Moisture  
Dew Point 10 °F    
Average Humidity 56    
Maximum Humidity 74    
Minimum Humidity 43    
Precipitation  
Precipitation 0.01 in - - ()
Sea Level Pressure  
Sea Level Pressure 30.29 in    
Wind  
Wind Speed 13 mph (NW)    
Max Wind Speed 24 mph    
Max Gust Speed 32 mph    
Visibility 10 miles    
Events      
Averages and records for this station are not official NWS values.
T = Trace of Precipitation, MM = Missing Value Source: NWS Daily Summary

Daily Weather History Graph

Daily Weather History Graph

Search for Another Location

Airport or City:

Trip Planner

Search our weather history database for the weather conditions in past years. The results will help you decide how hot, cold, wet, or windy it might be!

Date:

Astronomy

Jan. 21, 2013 Rise Set
Actual Time 7:04 AM CST 5:00 PM CST
Civil Twilight 6:35 AM CST 5:29 PM CST
Nautical Twilight 6:03 AM CST 6:01 PM CST
Astronomical Twilight 5:31 AM CST 6:33 PM CST
Moon 12:40 PM CST (1/21) 2:32 AM CST (1/21)
Length of Visible Light 10h 53m
Length of Day
9h 56m
Waxing Gibbous, 75% of the Moon is Illuminated
Jan 21
Waxing Gibbous
Jan 26
Full
Feb 3
Last Quarter
Feb 10
New
Feb 17
First Quarter

Hourly Weather History & Observations

Time (CST) Temp. Windchill Dew Point Humidity Pressure Visibility Wind Dir Wind Speed Gust Speed Precip Events Conditions
12:15 AM 28.4 °F 20.4 °F 19.4 °F 69% 30.22 in 10.0 mi NW 8.1 mph - N/A   Clear
12:35 AM 28.4 °F 22.2 °F 19.4 °F 69% 30.22 in 10.0 mi NW 5.8 mph - N/A   Mostly Cloudy
12:55 AM 28.4 °F 22.2 °F 21.2 °F 74% 30.22 in 10.0 mi NW 5.8 mph - N/A   Overcast
1:15 AM 28.4 °F 19.1 °F 19.4 °F 69% 30.22 in 10.0 mi NW 10.4 mph - N/A   Overcast
1:35 AM 28.4 °F 19.7 °F 19.4 °F 69% 30.23 in 10.0 mi NW 9.2 mph - N/A   Overcast
1:55 AM 28.4 °F 19.1 °F 19.4 °F 69% 30.23 in 10.0 mi NW 10.4 mph - N/A   Overcast
2:15 AM 28.4 °F 18.5 °F 21.2 °F 74% 30.24 in 10.0 mi NW 11.5 mph - N/A   Overcast
2:35 AM 28.4 °F 17.5 °F 19.4 °F 69% 30.24 in 10.0 mi NW 13.8 mph - N/A   Overcast
2:55 AM 26.6 °F 15.7 °F 19.4 °F 74% 30.25 in 10.0 mi NW 12.7 mph 17.3 mph N/A   Scattered Clouds
3:15 AM 26.6 °F 15.7 °F 19.4 °F 74% 30.23 in 10.0 mi WNW 12.7 mph - N/A   Mostly Cloudy
3:35 AM 26.6 °F 16.8 °F 19.4 °F 74% 30.24 in 10.0 mi NW 10.4 mph - N/A   Mostly Cloudy
3:55 AM 26.6 °F 16.2 °F 17.6 °F 69% 30.24 in 10.0 mi NW 11.5 mph 18.4 mph N/A   Scattered Clouds
4:15 AM 26.6 °F 16.2 °F 19.4 °F 74% 30.25 in 10.0 mi WNW 11.5 mph 16.1 mph N/A   Mostly Cloudy
4:35 AM 26.6 °F 15.7 °F 19.4 °F 74% 30.24 in 10.0 mi NW 12.7 mph - N/A   Mostly Cloudy
4:55 AM 24.8 °F 13.4 °F 17.6 °F 74% 30.24 in 10.0 mi NW 12.7 mph 16.1 mph N/A   Scattered Clouds
5:15 AM 24.8 °F 15.3 °F 17.6 °F 74% 30.24 in 10.0 mi NW 9.2 mph - N/A   Scattered Clouds
5:35 AM 26.6 °F 15.7 °F 19.4 °F 74% 30.25 in 10.0 mi WNW 12.7 mph - N/A   Mostly Cloudy
5:55 AM 24.8 °F 12.9 °F 17.6 °F 74% 30.26 in 10.0 mi WNW 13.8 mph - N/A   Mostly Cloudy
6:15 AM 26.6 °F 14.7 °F 17.6 °F 69% 30.26 in 10.0 mi WNW 15.0 mph - N/A   Mostly Cloudy
6:35 AM 23.0 °F 10.6 °F 15.8 °F 74% 30.27 in 10.0 mi WNW 13.8 mph - N/A   Scattered Clouds
6:55 AM 23.0 °F 12.4 °F 15.8 °F 74% 30.27 in 10.0 mi WNW 10.4 mph - N/A   Clear
7:15 AM 23.0 °F 9.2 °F 14.0 °F 68% 30.27 in 10.0 mi WNW 17.3 mph 25.3 mph N/A   Clear
7:35 AM 23.0 °F 8.0 °F 14.0 °F 68% 30.27 in 10.0 mi WNW 20.7 mph 27.6 mph N/A   Clear
7:55 AM 23.0 °F 9.2 °F 12.2 °F 63% 30.26 in 10.0 mi WNW 17.3 mph 25.3 mph N/A   Clear
8:15 AM 23.0 °F 10.1 °F 12.2 °F 63% 30.26 in 10.0 mi NW 15.0 mph 23.0 mph N/A   Clear
8:35 AM 23.0 °F 9.2 °F 14.0 °F 68% 30.26 in 10.0 mi WNW 17.3 mph - N/A   Clear
8:55 AM 23.0 °F 9.6 °F 14.0 °F 68% 30.28 in 10.0 mi NW 16.1 mph 20.7 mph N/A   Scattered Clouds
9:15 AM 24.8 °F 11.5 °F 14.0 °F 64% 30.28 in 10.0 mi NW 17.3 mph - N/A   Scattered Clouds
9:35 AM 26.6 °F 13.1 °F 14.0 °F 59% 30.28 in 10.0 mi NW 19.6 mph 25.3 mph N/A   Mostly Cloudy
9:55 AM 26.6 °F 13.8 °F 12.2 °F 55% 30.29 in 10.0 mi NW 17.3 mph 26.5 mph N/A   Scattered Clouds
10:15 AM 26.6 °F 14.3 °F 8.6 °F 47% 30.29 in 10.0 mi NW 16.1 mph 24.2 mph N/A   Clear
10:35 AM 26.6 °F 13.4 °F 8.6 °F 47% 30.28 in 10.0 mi NW 18.4 mph 25.3 mph N/A   Clear
10:55 AM 26.6 °F 12.7 °F 8.6 °F 47% 30.29 in 10.0 mi WNW 20.7 mph 26.5 mph N/A   Clear
11:15 AM 26.6 °F 12.0 °F 8.6 °F 47% 30.29 in 10.0 mi West 23.0 mph 29.9 mph N/A   Clear
11:35 AM 26.6 °F 12.0 °F 8.6 °F 47% 30.28 in 10.0 mi WNW 23.0 mph 32.2 mph N/A   Clear
11:55 AM 26.6 °F 13.4 °F 10.4 °F 51% 30.28 in 10.0 mi WNW 18.4 mph 26.5 mph N/A   Scattered Clouds
12:15 PM 26.6 °F 12.4 °F 10.4 °F 51% 30.27 in 10.0 mi West 21.9 mph 26.5 mph N/A   Scattered Clouds
12:35 PM 26.6 °F 13.1 °F 10.4 °F 51% 30.28 in 10.0 mi West 19.6 mph - N/A   Scattered Clouds
12:55 PM 26.6 °F 13.1 °F 8.6 °F 47% 30.27 in 10.0 mi WNW 19.6 mph 26.5 mph N/A   Clear
1:15 PM 26.6 °F 11.7 °F 8.6 °F 47% 30.26 in 10.0 mi WNW 24.2 mph 31.1 mph N/A   Clear
1:35 PM 26.6 °F 13.4 °F 8.6 °F 47% 30.27 in 10.0 mi West 18.4 mph 28.8 mph N/A   Clear
1:55 PM 26.6 °F 13.8 °F 6.8 °F 43% 30.27 in 10.0 mi WNW 17.3 mph 31.1 mph N/A   Clear
2:15 PM 26.6 °F 13.1 °F 8.6 °F 47% 30.28 in 10.0 mi NW 19.6 mph - N/A   Clear
2:35 PM 26.6 °F 13.4 °F 6.8 °F 43% 30.29 in 10.0 mi WNW 18.4 mph 26.5 mph N/A   Clear
2:55 PM 26.6 °F 14.7 °F 6.8 °F 43% 30.29 in 10.0 mi NW 15.0 mph 24.2 mph N/A   Clear
3:15 PM 24.8 °F 10.7 °F 5.0 °F 43% 30.30 in 10.0 mi West 19.6 mph 26.5 mph N/A   Scattered Clouds
3:35 PM 24.8 °F 9.3 °F 5.0 °F 43% 30.30 in 10.0 mi WNW 24.2 mph - N/A   Clear
3:55 PM 23.0 °F 8.7 °F 5.0 °F 46% 30.31 in 10.0 mi WNW 18.4 mph 26.5 mph N/A   Clear
4:15 PM 23.0 °F 10.1 °F 3.2 °F 43% 30.31 in 10.0 mi NW 15.0 mph 20.7 mph N/A   Clear
4:35 PM 23.0 °F 10.6 °F 5.0 °F 46% 30.31 in 10.0 mi WNW 13.8 mph 19.6 mph N/A   Clear
4:55 PM 21.2 °F 8.3 °F 3.2 °F 46% 30.31 in 10.0 mi NW 13.8 mph - N/A   Clear
5:15 PM 21.2 °F 8.3 °F 5.0 °F 50% 30.32 in 10.0 mi NW 13.8 mph - N/A   Clear
5:35 PM 21.2 °F 9.5 °F 5.0 °F 50% 30.32 in 10.0 mi WNW 11.5 mph 18.4 mph N/A   Mostly Cloudy
5:55 PM 21.2 °F 8.3 °F 5.0 °F 50% 30.33 in 10.0 mi NW 13.8 mph 18.4 mph N/A   Overcast
6:35 PM 21.2 °F 7.8 °F 5.0 °F 50% 30.33 in 10.0 mi WNW 15.0 mph - N/A   Mostly Cloudy
6:55 PM 21.2 °F 7.3 °F 5.0 °F 50% 30.34 in 10.0 mi NW 16.1 mph - N/A   Overcast
7:15 PM 21.2 °F 9.5 °F 3.2 °F 46% 30.33 in 10.0 mi NW 11.5 mph - N/A   Overcast
7:35 PM 21.2 °F 8.3 °F 3.2 °F 46% 30.33 in 10.0 mi NW 13.8 mph - N/A   Overcast
7:55 PM 21.2 °F 8.3 °F 5.0 °F 50% 30.34 in 10.0 mi WNW 13.8 mph - N/A   Overcast
8:15 PM 19.4 °F 5.5 °F 1.4 °F 46% 30.34 in 10.0 mi NW 15.0 mph - N/A   Overcast
8:35 PM 19.4 °F 7.9 °F 3.2 °F 49% 30.35 in 10.0 mi NW 10.4 mph - 0.01 in   Mostly Cloudy
8:55 PM 19.4 °F 5.5 °F 1.4 °F 46% 30.35 in 10.0 mi WNW 15.0 mph - 0.01 in   Clear
9:15 PM 19.4 °F 7.2 °F 1.4 °F 46% 30.35 in 10.0 mi NW 11.5 mph - N/A   Clear
9:35 PM 19.4 °F 6.6 °F 1.4 °F 46% 30.35 in 10.0 mi WNW 12.7 mph - N/A   Clear
9:55 PM 19.4 °F 7.9 °F 1.4 °F 46% 30.35 in 10.0 mi NW 10.4 mph - N/A   Clear
10:15 PM 19.4 °F 6.0 °F 1.4 °F 46% 30.36 in 10.0 mi NW 13.8 mph 18.4 mph N/A   Mostly Cloudy
10:35 PM 17.6 °F 3.7 °F 1.4 °F 49% 30.36 in 10.0 mi NW 13.8 mph 18.4 mph N/A   Scattered Clouds
10:55 PM 17.6 °F 2.7 °F -0.4 °F 45% 30.35 in 10.0 mi NNW 16.1 mph - N/A   Clear
11:15 PM 17.6 °F 2.7 °F -0.4 °F 45% 30.36 in 10.0 mi NW 16.1 mph 21.9 mph N/A   Clear
11:35 PM 17.6 °F 2.7 °F -0.4 °F 45% 30.35 in 10.0 mi NW 16.1 mph 23.0 mph N/A   Clear
11:55 PM 17.6 °F 3.2 °F -0.4 °F 45% 30.35 in 10.0 mi NW 15.0 mph - N/A   Clear